• In Belarus
  • List of Countries
  • For 7 days
  • Water Temperature
  • Satellite Maps
  • Weather Map
  • Weather Widgets
  • user-avatar
    Login

    Hourly Weather Boguslav

    Today, 21 September, Friday

    Time Temperature Precipitation Wind Pressure Humidity
    00:00 +20°C° 0 mm 1 mps 750 mmHg 64%
    01:00 +17°C° 0 mm 0 mps 750 mmHg 65%
    02:00 +17°C° 0 mm 0 mps 750 mmHg 67%
    03:00 +17°C° 0 mm 0 mps 750 mmHg 68%
    04:00 +16°C° 0 mm 0 mps 750 mmHg 69%
    05:00 +16°C° 0 mm 0 mps 750 mmHg 71%
    06:00 +17°C° 0 mm 0 mps 751 mmHg 67%
    07:00 +19°C° 0 mm 0 mps 751 mmHg 63%
    08:00 +20°C° 0 mm 0 mps 751 mmHg 57%
    09:00 +24°C° 0 mm 1 mps 751 mmHg 53%
    10:00 +25°C° 0 mm 1 mps 751 mmHg 49%
    11:00 +27°C° 0 mm 1 mps 751 mmHg 44%
    12:00 +28°C° 0 mm 1 mps 751 mmHg 42%
    13:00 +28°C° 0 mm 1 mps 751 mmHg 39%
    14:00 +29°C° 0 mm 1 mps 750 mmHg 36%
    15:00 +28°C° 0 mm 1 mps 750 mmHg 40%
    16:00 +27°C° 0 mm 1 mps 750 mmHg 43%
    17:00 +27°C° 0 mm 1 mps 749 mmHg 46%
    18:00 +25°C° 0 mm 1 mps 749 mmHg 49%
    19:00 +23°C° 0 mm 2 mps 749 mmHg 52%
    20:00 +21°C° 0 mm 2 mps 749 mmHg 55%
    21:00 +20°C° 0 mm 2 mps 749 mmHg 57%
    22:00 +20°C° 0 mm 2 mps 749 mmHg 60%
    23:00 +19°C° 0 mm 2 mps 749 mmHg 62%

    Tomorrow, 22 September, Saturday

    Time Temperature Precipitation Wind Pressure Humidity
    00:00 +19°C° 0 mm 2 mps 749 mmHg 63%
    01:00 +19°C° 0 mm 2 mps 749 mmHg 65%
    02:00 +18°C° 0 mm 2 mps 749 mmHg 66%
    03:00 +18°C° 0 mm 2 mps 748 mmHg 67%
    04:00 +18°C° 0 mm 2 mps 748 mmHg 68%
    05:00 +18°C° 0 mm 2 mps 748 mmHg 69%
    06:00 +19°C° 0 mm 2 mps 748 mmHg 65%
    07:00 +20°C° 0 mm 3 mps 748 mmHg 61%
    08:00 +21°C° 0 mm 3 mps 748 mmHg 57%
    09:00 +24°C° 0 mm 3 mps 748 mmHg 50%
    10:00 +26°C° 0 mm 4 mps 748 mmHg 43%
    11:00 +28°C° 0 mm 4 mps 747 mmHg 37%
    12:00 +29°C° 0 mm 5 mps 747 mmHg 35%
    13:00 +29°C° 0 mm 5 mps 747 mmHg 34%
    14:00 +29°C° 0 mm 5 mps 746 mmHg 33%
    15:00 +28°C° 0 mm 4 mps 746 mmHg 37%
    16:00 +27°C° 0 mm 3 mps 746 mmHg 41%
    17:00 +26°C° 0 mm 2 mps 745 mmHg 44%
    18:00 +25°C° 0 mm 3 mps 745 mmHg 47%
    19:00 +22°C° 0 mm 3 mps 745 mmHg 50%
    20:00 +20°C° 0 mm 3 mps 746 mmHg 52%
    21:00 +19°C° 0 mm 4 mps 746 mmHg 57%
    22:00 +17°C° 0 mm 5 mps 746 mmHg 62%
    23:00 +15°C° 0 mm 6 mps 746 mmHg 67%

    Day after tomorrow, 23 September, Sunday

    Time Temperature Precipitation Wind Pressure Humidity
    00:00 +14°C° 0.9 mm 7 mps 747 mmHg 73%
    01:00 +11°C° 0.9 mm 7 mps 747 mmHg 78%
    02:00 +10°C° 0.9 mm 7 mps 747 mmHg 84%
    03:00 +9°C° 0.7 mm 6 mps 748 mmHg 84%
    04:00 +9°C° 0.7 mm 5 mps 748 mmHg 85%
    05:00 +8°C° 0.7 mm 4 mps 748 mmHg 85%
    06:00 +10°C° 0 mm 3 mps 748 mmHg 83%
    07:00 +10°C° 0 mm 3 mps 748 mmHg 81%
    08:00 +10°C° 0 mm 3 mps 748 mmHg 79%
    09:00 +12°C° 0 mm 4 mps 748 mmHg 71%
    10:00 +14°C° 0 mm 4 mps 748 mmHg 62%
    11:00 +16°C° 0 mm 5 mps 748 mmHg 54%
    12:00 +17°C° 0 mm 5 mps 748 mmHg 51%
    13:00 +17°C° 0 mm 6 mps 748 mmHg 47%
    14:00 +19°C° 0 mm 6 mps 748 mmHg 43%
    15:00 +17°C° 0 mm 5 mps 748 mmHg 46%
    16:00 +17°C° 0 mm 4 mps 748 mmHg 50%
    17:00 +17°C° 0 mm 4 mps 748 mmHg 53%
    18:00 +16°C° 0 mm 3 mps 748 mmHg 57%
    19:00 +13°C° 0 mm 3 mps 748 mmHg 60%
    20:00 +12°C° 0 mm 3 mps 749 mmHg 64%
    21:00 +12°C° 0 mm 3 mps 749 mmHg 66%
    22:00 +11°C° 0 mm 3 mps 749 mmHg 67%
    23:00 +11°C° 0 mm 3 mps 749 mmHg 68%

    24 September, Monday

    Time Temperature Precipitation Wind Pressure Humidity
    00:00 +11°C° 0 mm 3 mps 748 mmHg 69%
    01:00 +10°C° 0 mm 3 mps 748 mmHg 69%
    02:00 +10°C° 0 mm 3 mps 748 mmHg 70%
    03:00 +10°C° 0 mm 3 mps 747 mmHg 69%
    04:00 +10°C° 0 mm 3 mps 746 mmHg 68%
    05:00 +10°C° 0 mm 3 mps 746 mmHg 68%
    06:00 +12°C° 0.1 mm 5 mps 745 mmHg 63%
    07:00 +12°C° 0.1 mm 7 mps 744 mmHg 58%
    08:00 +13°C° 0.1 mm 9 mps 743 mmHg 53%
    09:00 +15°C° 1.6 mm 9 mps 742 mmHg 59%
    10:00 +15°C° 1.6 mm 8 mps 741 mmHg 66%
    11:00 +16°C° 1.6 mm 8 mps 740 mmHg 73%
    12:00 +16°C° 1.6 mm 8 mps 739 mmHg 76%
    13:00 +17°C° 1.6 mm 9 mps 738 mmHg 79%
    14:00 +17°C° 1.6 mm 10 mps 737 mmHg 82%
    15:00 +16°C° 0.3 mm 10 mps 737 mmHg 78%
    16:00 +13°C° 0.3 mm 11 mps 737 mmHg 73%
    17:00 +12°C° 0.3 mm 12 mps 737 mmHg 68%
    18:00 +11°C° 0 mm 11 mps 738 mmHg 68%
    19:00 +9°C° 0 mm 11 mps 739 mmHg 69%
    20:00 +8°C° 0 mm 10 mps 740 mmHg 69%
    21:00 +8°C° 0 mm 10 mps 740 mmHg 68%
    22:00 +8°C° 0 mm 10 mps 741 mmHg 67%
    23:00 +9°C° 0 mm 10 mps 742 mmHg 66%

    25 September, Tuesday

    Time Temperature Precipitation Wind Pressure Humidity
    00:00 +8°C° 0 mm 9 mps 742 mmHg 66%
    01:00 +8°C° 0 mm 9 mps 742 mmHg 67%
    02:00 +7°C° 0 mm 9 mps 742 mmHg 67%
    03:00 +7°C° 0 mm 9 mps 743 mmHg 70%
    04:00 +6°C° 0 mm 8 mps 743 mmHg 72%
    05:00 +6°C° 0 mm 8 mps 743 mmHg 74%
    06:00 +6°C° 0 mm 8 mps 744 mmHg 73%
    07:00 +7°C° 0 mm 8 mps 744 mmHg 72%
    08:00 +7°C° 0 mm 8 mps 745 mmHg 72%
    09:00 +9°C° 0 mm 8 mps 745 mmHg 68%
    10:00 +10°C° 0 mm 8 mps 746 mmHg 64%
    11:00 +10°C° 0 mm 8 mps 747 mmHg 60%
    12:00 +10°C° 0.1 mm 9 mps 747 mmHg 61%
    13:00 +10°C° 0.1 mm 9 mps 748 mmHg 61%
    14:00 +8°C° 0.1 mm 9 mps 748 mmHg 62%
    15:00 +9°C° 0 mm 8 mps 748 mmHg 62%
    16:00 +7°C° 0 mm 8 mps 749 mmHg 62%
    17:00 +8°C° 0 mm 7 mps 749 mmHg 62%
    18:00 +7°C° 0 mm 6 mps 750 mmHg 64%
    19:00 +7°C° 0 mm 6 mps 751 mmHg 65%
    20:00 +5°C° 0 mm 6 mps 751 mmHg 66%
    21:00 +5°C° 0 mm 6 mps 752 mmHg 67%
    22:00 +6°C° 0 mm 5 mps 752 mmHg 69%
    23:00 +5°C° 0 mm 5 mps 752 mmHg 70%

    26 September, Wednesday

    Time Temperature Precipitation Wind Pressure Humidity
    00:00 +5°C° 0 mm 5 mps 753 mmHg 71%
    01:00 +5°C° 0 mm 5 mps 753 mmHg 73%
    02:00 +3°C° 0 mm 5 mps 753 mmHg 74%
    03:00 +3°C° 0 mm 5 mps 753 mmHg 75%
    04:00 +3°C° 0 mm 5 mps 753 mmHg 76%
    05:00 +2°C° 0 mm 5 mps 754 mmHg 77%
    06:00 +3°C° 0 mm 5 mps 754 mmHg 73%
    07:00 +5°C° 0 mm 5 mps 753 mmHg 68%
    08:00 +5°C° 0 mm 6 mps 753 mmHg 64%
    09:00 +7°C° 0 mm 6 mps 753 mmHg 64%
    10:00 +9°C° 0 mm 7 mps 753 mmHg 63%
    11:00 +10°C° 0 mm 7 mps 753 mmHg 63%
    12:00 +10°C° 0 mm 7 mps 752 mmHg 64%
    13:00 +11°C° 0 mm 8 mps 752 mmHg 64%
    14:00 +11°C° 0 mm 8 mps 751 mmHg 65%
    15:00 +11°C° 0 mm 8 mps 751 mmHg 66%
    16:00 +10°C° 0 mm 8 mps 751 mmHg 68%
    17:00 +10°C° 0 mm 7 mps 751 mmHg 70%
    18:00 +9°C° 0.2 mm 7 mps 751 mmHg 73%
    19:00 +9°C° 0.2 mm 7 mps 751 mmHg 77%
    20:00 +8°C° 0.2 mm 7 mps 751 mmHg 81%
    21:00 +8°C° 0.1 mm 7 mps 751 mmHg 82%
    22:00 +8°C° 0.1 mm 7 mps 751 mmHg 83%
    23:00 +8°C° 0.1 mm 7 mps 751 mmHg 83%
    Show more